www.pogodaiklimat.ru

Погода и климат >> Архив погоды >> Россия >> Забайкальский край >> Красный Чикой


АРХИВ ПОГОДЫ в Красном Чикое

Время (UTC), дата Ветер
(напр.,м/с)
 
Видим.   Явления Облачность Т
(С)
Тd
(С)
f
(%)
Тe
(С)
Тes
(С)
Комфортность P
(гПа)
Po
(гПа)
Тmin
(С)
Tmax
(С)
R
(мм)
R24
(мм)
S
(см)
15 11.08 З 6-12
{12}
10 км гроза, ливневой дождь 10/6 1000 м
[Cb calv Ac As]
+18.7 +17.3 92 +19 +19 1004.4 919.1
18 11.08 ЮЗ 2
{12}
50 км {гроза, ливн. осадки} 10/8 1000 м
[Cb calv Ac As]
+17.2 +16.7 97 +18 +18 1005.6 919.7
21 11.08 ЮЗ 2
{11}
10 км ливневой дождь 10/8 1000 м
[Cb cap Ac As]
+12.7 +12.1 96 +12 +12 1009.8 922.1
00 12.08 З 1 10 км слаб. ливневой дождь 10/8 1000 м
[Cb cap Ac As]
+12.5 +11.1 91 +12 +13 1011.6 923.7 +12.2 10
03 12.08 З 2 50 км {ливн. осадки} 10/6 1000 м
[Cb cap Ac lent Ci fib]
+14.2 +9.9 75 +14 +16 1012.2 924.8
06 12.08 СЗ 1 50 км {ливн. осадки} 10/6 1000 м
[Cb cap Ac lent Ci fib]
+16.3 +9.1 62 +17 +20 1011.3 924.5
09 12.08 СЗ 2 50 км 10/5 1000 м
[Cb cap Ac lent Ci fib]
+17.3 +8.1 55 +18 +19 1010.4 923.9
12 12.08 штиль 0 50 км 6/3 1000 м
[Cb cap Ac lent Ci fib]
+14.3 +10.1 76 +14 +14 1011.4 924.0 +18.0 0.0
15 12.08 С 1 50 км 3/0
[Ci fib]
+8.6 +7.8 95 +8 +8 1014.0 924.7
18 12.08 штиль 0 500 м туман ?/? +7.7 +7.4 98 +7 +7 1014.4 924.7
21 12.08 СЗ 1 500 м туман ?/? +7.1 +6.9 99 +6 +6 1014.4 924.5
00 13.08 СВ 1 500 м туман ?/? +8.2 +8.0 99 +7 +7 1014.2 924.7 +6.9
03 13.08 В 2 2000 м дымка {туман} 10/10 600 м
[St]
+11.3 +8.9 85 +10 +10 1011.8 923.4
06 13.08 ЮВ 1 50 км {туман} 10/4 1000 м
[Cb cap Ac lent Ci sp]
+15.8 +10.9 73 +17 +21 1007.0 920.4
09 13.08 Ю 1
{10}
10 км гроза, ливневой дождь 10/8 1000 м
[Cb cap Ac As]
+13.2 +11.7 91 +13 +14 1009.1 921.7
12 13.08 штиль 0 50 км {гроза, ливн. осадки} 10/3 1000 м
[Cb cap Ac lent Ci fib]
+13.0 +11.2 89 +12 +12 1008.8 921.3 +16.2 4
15 13.08 З 1 50 км {ливн. осадки} 10/3 1000 м
[Cb cap Ac lent Ci fib]
+10.9 +10.3 96 +10 +10 1009.7 921.5
18 13.08 Ю 1 50 км {ливн. осадки} 10/3 1000 м
[Cb cap Ac lent Ci fib]
+11.2 +10.8 97 +11 +11 1009.5 921.4
21 13.08 З 1 50 км 10/3 1000 м
[Cb cap Ac lent Ci fib]
+9.4 +8.9 97 +9 +9 1010.5 921.7
00 14.08 штиль 0 50 км 6/3 1000 м
[Cu hum Ac lent Ci fib]
+12.0 +10.3 89 +11 +14 1010.0 922.0 +7.4 3
03 14.08 ЮВ 2 50 км 6/6 1000 м
[Cu med, cong]
+15.7 +9.9 68 +16 +20 1008.5 921.8
06 14.08 Ю 2 50 км 6/4 1000 м
[Cu med, cong Ci fib]
+19.3 +8.8 51 +21 +28 комфорт 1005.7 920.2
09 14.08 В 1 50 км 6/3 1000 м
[Cu med, cong Ci fib]
+21.2 +7.4 41 +22 +26 комфорт 1004.1 919.3
12 14.08 СЗ 5 50 км 10/3 1000 м
[Cb calv Ac lent Ci sp]
+15.7 +10.6 72 +15 +15 1005.9 919.4 +21.6
15 14.08 Ю 1 50 км 8/3 1000 м
[Cu hum Ci sp]
+10.2 +9.1 93 +10 +10 1009.3 920.9
18 14.08 ЮВ 1 50 км 6/3 1000 м
[Cu hum Ci sp]
+8.1 +7.5 96 +7 +7 1011.3 922.0
21 14.08 штиль 0 50 км 10/4 1000 м
[Cb cap Ac lent Ci sp]
+8.0 +7.5 97 +7 +7 1013.1 923.6
00 15.08 ЮЗ 1 50 км 6/4 1000 м
[Cb cap Ci fib]
+10.7 +8.9 89 +10 +12 1013.8 925.1 +6.8
03 15.08 СВ 1 50 км 8/8 1000 м
[Cu med, cong]
+17.2 +8.3 56 +18 +21 1011.5 924.9
06 15.08 С 2 50 км 8/8 1000 м
[Cb cap Ci fib]
+20.0 +6.4 41 +21 +24 комфорт 1010.0 924.3
09 15.08 С 3 50 км 8/8 1000 м
[Cb cap Ac lent Ci fib]
+18.7 +8.7 52 +19 +20 1010.3 924.3
12 15.08 СЗ 3 50 км 9/8 1000 м
[Cb cap Ci fib]
+15.4 +9.8 69 +15 +15 1011.6 924.5 +20.6
15 15.08 С 2 50 км 4/0
[Ci fib]
+10.5 +8.3 86 +9 +9 1014.0 925.2
18 15.08 штиль 0 50 км 3/0
[Ci fib]
+8.0 +7.1 94 +7 +7 1015.2 925.6
21 15.08 штиль 0 50 км 6/0
[Ac lent Ci fib]
+6.7 +6.2 97 +6 +6 1015.8 925.7
00 16.08 СЗ 1 500 м туман ?/? +7.8 +7.5 98 +7 +7 1015.8 926.1 +6.6
03 16.08 СВ 1 50 км {туман} 6/3 1000 м
[Cb cap Ci fib]
+14.7 +10.5 76 +15 +24 1012.7 925.3
06 16.08 ЮЗ 1 50 км {туман} 10/5 1000 м
[Cb cap Ac lent Ci fib]
+19.1 +8.8 51 +21 +25 комфорт 1009.3 923.4
09 16.08 Ю 2 50 км 10/3 1000 м
[Cb cap Ac lent Ci fib]
+21.3 +7.5 41 +22 +24 комфорт 1007.8 922.6
12 16.08 СЗ 1 50 км ясно +14.1 +10.5 79 +14 +14 1010.0 922.7 +21.6
15 16.08 СЗ 1 50 км ясно +8.9 +7.9 93 +8 +8 1012.4 923.3
18 16.08 З 1 50 км 3/0
[Ci fib]
+6.1 +5.7 97 +5 +5 1013.5 923.4
21 16.08 СВ 1 500 м туман ?/? +6.6 +6.4 99 +5 +5 1013.4 923.5
00 17.08 В 1 500 м туман ?/? +7.6 +7.4 99 +7 +7 1013.1 923.5 +5.1
03 17.08 ЮВ 1 2000 м дымка {туман} 10/10 600 м
[St]
+10.9 +8.6 86 +11 +11 1010.1 921.8
06 17.08 штиль 0 50 км {туман} 10/4 1000 м
[Cb cap Ac As]
+14.8 +10.3 74 +15 +18 1007.1 920.2
09 17.08 штиль 0 50 км 10/4 1000 м
[Cb cap Ac As]
+17.5 +11.4 67 +18 +19 1005.0 919.1
12 17.08 штиль 0 50 км 10/4 1000 м
[Cb cap Ac lent Ci fib]
+15.0 +12.2 83 +15 +15 1005.5 918.8 +17.6
15 17.08 штиль 0 50 км 10/3 1000 м
[Cb cap Ac lent Ci fib]
+12.5 +11.7 95 +12 +12 1006.8 919.4
18 17.08 З 1 50 км 10/3 1000 м
[Cb cap Ac lent Ci fib]
+12.3 +10.9 91 +12 +12 1007.9 920.3
21 17.08 З 1 50 км 10/4 1000 м
[Cb cap Ac lent Ci fib]
+11.9 +11.0 94 +12 +12 1009.0 921.2
00 18.08 З 1 10 км слаб. ливневой дождь 10/8 1000 м
[Cb cap Ac lent Ci fib]
+14.0 +11.6 85 +14 +15 1010.0 922.7 +11.8 0.3
03 18.08 З 3 10 км осадки на расстоянии {ливн. осадки} 10/8 1000 м
[Cb cap Ac As]
+14.3 +11.2 82 +13 +14 1011.2 923.9
06 18.08 З 3 50 км {ливн. осадки} 10/8 1000 м
[Cb cap Ac As]
+16.4 +10.7 69 +16 +17 1010.2 923.6
09 18.08 ЮЗ 3 50 км 10/8 1000 м
[Cb cap Ac As]
+17.5 +11.1 66 +18 +18 1009.4 923.1
12 18.08 СЗ 1 50 км 3/1 1000 м
[Cu hum Ci fib]
+13.9 +11.7 87 +14 +14 1010.8 923.4 +17.9 2

 

Местоположение метеостанции Красный Чикой (Забайкальский край, Россия): широта 50.37 долгота 108.70 высота над уровнем моря 771 м.

В архиве по умолчанию представлена погода в Красном Чикое за последнюю неделю. Архивные данные за месяц целиком и за предыдущие месяцы, начиная с января 2011 года, Вы можете получить, выбрав интересующий диапазон дат из раскрывающегося списка и нажав кнопку "Ввод!".


*Определитесь, кто Вы:
робот инопланетянин человек

Внимание! Время в таблицах - всемирное. Для получения местного времени необходимо прибавить поправку, которая равна 9 ч.

Смотрите также архив погоды в соседних городах и на ближайших метеорологических станциях:

Погода в Бичуре (Бурятия, Россия) (89 км)
Погода в Улыгайин Дуганг (Монголия) (92 км)
Погода в Мухоршибири (Бурятия, Россия) (97 км)
Погода в Черемхово (Забайкальский край, Россия) (102 км)
Погода в Мензе (Забайкальский край, Россия) (105 км)
Погода в Петровском Заводе (Забайкальский край, Россия) (106 км)
Погода в Хадатыне (Монголия) (148 км)
Погода в Хилке (Забайкальский край, Россия) (163 км)
Погода в Кяхте (Бурятия, Россия) (163 км)
Погода в Новоселенгинске (Бурятия, Россия) (169 км)

Пояснения к столбцам:

Ветер - указаны скорость ветра в м/с - средняя за 10 мин, порывы в срок и между сроками (в фигурных скобках) и направление, откуда дует ветер: С - северный, СВ - северо-восточный, В - восточный, ЮВ - юго-восточный, Ю - южный, ЮЗ - юго-западный, З - западный, СЗ - северо-западный.
Видимость - горизонтальная дальность видимости в метрах или километрах. При видимости от 1 до 10 км при отсутствии осадков обычно наблюдается дымка, при ухудшении видимости до 1 км и менее - туман. В сухую погоду видимость может ухудшаться дымом, пылью или мглою.
Явления - указаны атмосферные явления, наблюдавшиеся в срок или в последний час перед сроком; фигурными скобками обозначены явления, наблюдавшиеся между сроками (за 1-3 часа до срока); квадратными скобками обозначены град или гололедные отложения с указанием их диаметра в мм.
Облачность - указаны через наклонную черту общая и нижняя облачность в баллах и высота нижней границы облаков в метрах; квадратными скобками обозначены формы облаков: Ci - перистые, Cs - перисто-слоистые, Cc - перисто-кучевые, Ac - высококучевые, As - высокослоистые, Sc - слоисто-кучевые, Ns - слоисто-дождевые, Cu - кучевые, Cb - кучево-дождевые. Подробнее классификацию облаков см. в Атласе облаков (PDF).
T - Температура воздуха - температура, измеренная на высоте 2 м над землей.
Td - Температура точки росы - температура, при понижении до которой содержащийся в воздухе водяной пар достигнет насыщения.
f - Относительная влажность воздуха - влажноcть воздуха, измеренная на высоте 2 м над землей.
Te - Эффективная температура - температура, которую ощущает одетый по сезону человек в тени. Характеристика душности погоды. При расчете учитывается влияние влажности воздуха и скорости ветра на теплоощущения человека.
Tes - Эффективная температура на солнце - температура, которую ощущает человек, с поправкой на солнечный нагрев. Характеристика знойности погоды. Зависит от высоты солнца над горизонтом, облачности и скорости ветра. Ночью, в пасмурную погоду, а также при ветре 12 м/с и более поправка равна нулю.
P - Атмосферное давление - приведенное к уровню моря атмосферное давление.
Po - Атмосферное давление - измеренное на уровне метеостанции атмосферное давление.
Tmin - Минимальная температура - минимум температуры воздуха на высоте 2 м над землей.
Tmax - Максимальная температура - максимум температуры воздуха на высоте 2 м над землей.
R - Количество осадков - Количество выпавших осадков за период времени, мм. При наведении курсора мыши на число - период времени, за который выпало указанное количество осадков.
R24 - Количество осадков - Количество выпавших осадков за 24 часа, мм.
S - Снежный покров - Высота снежного покрова, см. При наведении курсора мыши на число - состояние снежного покрова и степень покрытия местности в баллах.